Location: *
(38.4303°S, 157.0822°W)
Time: 13:51:02
(UTC+00:00)

Cosmos 2228 - Pass Details

Date: 21 May 2024
Orbit: 578 x 603 km, 82.5° (Epoch: 22 June)

Event Time Altitude Azimuth Distance (km) Brightness Sun altitude
Rises 16:21:42 0° 355° (N) 2,846 6.6 -13.1°
Reaches altitude 10° 16:23:54 10° 355° (N) 1,950 5.8 -12.7°
Maximum altitude 16:28:13 87° 83° (E) 614 3.0 -11.9°
Drops below altitude 10° 16:32:35 10° 172° (S) 1,966 5.5 -11.1°
Sets 16:34:49 0° 172° (S) 2,873 6.4 -10.7°
